www.pogodaiklimat.ru

Погода и климат >> Архив погоды >> Россия >> Свердловская область >> Таборы


ПОГОДА в Таборах

  • Прогноз погоды в Таборах
  • Монитор погоды в Таборах
  • Климат города

АРХИВ ПОГОДЫ в Таборах

Время (UTC), дата Ветер
(напр.,м/с)
 
Видим.   Явления Облачность Т
(С)
Тd
(С)
f
(%)
Тe
(С)
Тes
(С)
Комфортность P
(гПа)
Po
(гПа)
Тmin
(С)
Tmax
(С)
R
(мм)
R24
(мм)
S
(см)
18 13.05 ЮЗ 3 50 км 10/0
[Ac und]
+9.3 -6.3 33 +8 +8 1013.1 1005.6
21 13.05 З 4 50 км 10/0
[Ac und]
+9.6 -6.4 32 +8 +8 1010.4 1002.9
00 14.05 З 3 50 км 8/0
[Ac trans Ci fib]
+7.3 -6.5 37 +5 +5 1008.4 1000.8
03 14.05 СЗ 8-12
{12}
50 км 5/0
[Ac trans Ci fib]
+10.2 -3.8 37 +7 +7 1007.7 1000.2 +6.9
06 14.05 С 8-13
{15}
50 км 10/9 800 м
[Cu hum Ci fib]
+8.7 -3.6 42 +5 +5 1010.5 1003.0
09 14.05 СЗ 8-11
{14}
50 км 10/9 870 м
[Cu med, cong Ci fib]
+7.8 -3.4 45 +4 +4 1013.5 1005.9
12 14.05 СЗ 8-12
{14}
50 км 10/10 750 м
[Sc diur, vesp]
+7.6 -5.7 38 +3 +3 1015.0 1007.5
15 14.05 С 4
{12}
50 км 10/9 700 м
[Sc Ac und]
+7.1 -4.6 43 +4 +4 1015.8 1008.3 +10.9
18 14.05 СЗ 4 50 км 9/5 300 м
[Cb cap Ac As]
+6.2 -3.8 49 +3 +3 1016.3 1008.7
21 14.05 СЗ 3 50 км 8/3 300 м
[Cb cap Ac As]
+4.2 -3.2 59 +1 +1 1016.3 1008.6
00 15.05 З 3 50 км 8/0
[Ac As Ci fib]
+2.1 -3.9 64 -2 -2 1016.0 1008.3
03 15.05 З 2 50 км 10/0
[Ac trans Cs]
+5.1 -3.3 55 +3 +7 1014.8 1007.1 +1.6
06 15.05 З 5
{10}
50 км 10/4 600 м
[Cu hum As trans]
+8.0 -4.5 41 +5 +6 1012.2 1004.6
09 15.05 З 4 50 км 10/0
[As trans]
+8.5 -4.7 39 +6 +9 1010.1 1002.6
12 15.05 ЮЗ 3
{11}
15 км слабый ливневой дождь 10/10 400 м
[Cb cap]
+5.7 +2.3 79 +2 +2 1009.3 1001.8
15 15.05 СВ 2 6000 м слабый ливневой дождь 10/10 420 м
[Cb cap]
+4.9 +3.7 92 +2 +2 1008.4 1000.8 +8.9 3
18 15.05 С 5 6000 м слабый ливневой дождь 10/10 480 м
[Cb cap]
+4.0 +2.6 91 -1 -1 1011.9 1004.3
21 15.05 С 4
{10}
50 км {ливн. осадки} 10/10 630 м
[Sc]
+2.4 +0.8 89 -3 -3 1015.5 1007.8
00 16.05 СЗ 3 50 км {ливн. осадки} 10/0
[Ac und]
+1.2 -0.4 89 -3 -3 1017.4 1009.7
03 16.05 СЗ 5 50 км 10/10 330 м
[St]
+0.7 -2.0 82 -5 -5 1019.3 1011.5 +0.7 3
06 16.05 СЗ 5 50 км 9/3 600 м
[Sc diur, vesp Ac trans]
+3.2 -5.3 54 -1 +1 1020.5 1012.8
09 16.05 С 5
{10}
50 км 8/3
[Sc diur, vesp Ac trans]
+5.6 -7.0 40 +2 +5 1021.1 1013.4
12 16.05 СЗ 5
{11}
50 км 6/6 600 м
[Sc diur, vesp]
+6.6 -7.3 36 +3 +4 1021.4 1013.8
15 16.05 С 4 50 км 10/4 600 м
[Sc diur, vesp Ac trans Ci fib]
+4.9 -7.3 41 +2 +2 1021.7 1014.0 +6.6
18 16.05 ЮЗ 1 50 км 8/0
[Ac trans Ci fib]
-1.7 -5.2 77 -4 -4 1021.7 1013.8
21 16.05 ЮЗ 1 н/о н/о -3.8 -5.9 85 -6 -6 1021.1 1013.2
00 17.05 Ю 1 50 км 10/0
[Ci fib]
-2.2 -5.4 79 -4 -4 1020.0 1012.1
03 17.05 ЮЗ 3 50 км 10/0
[Ac und]
+3.7 -4.8 54 +1 +2 1018.2 1010.5 -3.9
06 17.05 ЮЗ 5 50 км 9/0
[Ac trans Ci fib]
+9.0 -6.7 32 +6 +10 1015.3 1007.8
09 17.05 З 6-10
{11}
50 км 8/3 600 м
[Cu hum Ci fib]
+13.2 -5.0 28 +11 +14 1012.9 1005.5
12 17.05 СЗ 5
{13}
50 км 8/0
[Ci fib]
+13.8 -7.5 22 +12 +15 1011.5 1004.1
15 17.05 З 1
{10}
50 км 9/0
[Ac trans]
+13.2 -5.3 27 +14 +14 1010.2 1002.8 +14.9
18 17.05 СЗ 2 50 км 10/8 540 м
[Cb cap Ac und]
+10.8 -4.8 33 +10 +10 1010.4 1003.0
21 17.05 СВ 4 50 км 10/3 300 м
[Cb cap Ac und]
+6.5 -1.7 56 +3 +3 1010.3 1002.8
00 18.05 СВ 5 20 км слабый ливневой дождь 10/9 420 м
[Cb cap Ac und]
+3.4 +1.1 85 -2 -2 1012.8 1005.0
03 18.05 С 5
{10}
50 км в посл. час ливневой снег 10/9 420 м
[Cb cap Ac und]
+1.8 -0.2 87 -4 -4 1015.9 1008.2 +1.0 1
06 18.05 С 5
{11}
50 км {ливн. осадки} 9/8 800 м
[Cu med, cong Ci fib]
+3.0 -5.5 54 -2 -0 1019.3 1011.6
09 18.05 С 4
{10}
50 км 6/6 600 м
[Cu hum]
+5.1 -7.0 41 +1 +4 1021.3 1013.7
12 18.05 СВ 4 50 км 3/3 1000 м
[Cu hum]
+6.9 -7.9 34 +4 +7 1022.4 1014.8
15 18.05 СВ 2 50 км 4/0
[Ci fib]
+6.6 -8.4 33 +5 +6 1023.7 1016.0 +7.1
18 18.05 штиль 0 50 км 3/0
[Ci fib]
-1.4 -5.7 72 -2 -2 1024.7 1016.8
21 18.05 Ю 1 50 км 8/0
[Ci fib]
-2.5 -4.8 84 -5 -5 1025.5 1017.6
00 19.05 Ю 2 50 км 8/0
[Ci fib]
+0.2 -6.3 62 -3 -3 1025.6 1017.7
03 19.05 Ю 5 50 км 8/0
[Ci fib]
+5.3 -7.6 39 +2 +4 1025.1 1017.4 -3.2
06 19.05 Ю 6
{10}
50 км 4/0
[Ci fib]
+9.7 -8.3 27 +7 +11 1023.0 1015.4
09 19.05 Ю 6
{11}
50 км 10/0
[Cs]
+11.9 -7.5 25 +10 +14 1021.0 1013.5
12 19.05 ЮЗ 6-10
{12}
50 км 10/0
[As op]
+10.0 -4.4 36 +7 +8 1020.0 1012.4
15 19.05 Ю 4
{11}
50 км 10/0
[Ac und]
+7.9 -2.2 49 +5 +5 1017.7 1010.1 +12.6
18 19.05 ЮВ 4 6000 м слабый ливневой дождь 10/10 450 м
[Cb cap]
+6.7 +1.0 67 +3 +3 1015.0 1007.4
21 19.05 ЮВ 3 50 км {ливн. осадки} 10/10 480 м
[Cb cap]
+6.7 +1.6 70 +4 +4 1012.1 1004.5
00 20.05 ЮВ 2 50 км {ливн. осадки} 10/10 570 м
[Cb cap]
+6.1 +2.3 77 +4 +4 1009.9 1002.3
03 20.05 Ю 2 50 км 8/0
[Ac und Ci sp]
+12.2 +6.7 69 +11 +14 1007.5 1000.1 +6.1 1
06 20.05 ЮЗ 6 50 км 8/0
[Ci fib]
+22.9 +9.4 42 +24 +29 комфорт 1005.7 998.6
09 20.05 ЮЗ 6-10
{13}
50 км 9/8 300 м
[Cb cap Ci fib]
+26.4 +8.3 32 +26 +27 жарко 1004.0 997.0
12 20.05 З 5
{20}
30 км гроза, ливневой дождь 10/8 300 м
[Cb calv Ac lent Ci fib]
+16.3 +12.0 76 +15 +16 1005.8 998.5

 

Местоположение метеостанции Таборы (Свердловская область, Россия): широта 58.53 долгота 64.50 высота над уровнем моря 63 м.

В архиве по умолчанию представлена погода в Таборах за последнюю неделю. Архивные данные за месяц целиком и за предыдущие месяцы, начиная с января 2011 года, Вы можете получить, выбрав интересующий диапазон дат из раскрывающегося списка и нажав кнопку "Ввод!".


*Определитесь, кто Вы:
робот инопланетянин человек

Внимание! Время в таблицах - всемирное. Для получения местного времени необходимо прибавить поправку, которая в Таборах равна 5 ч.

Смотрите также архив погоды в соседних городах и на ближайших метеорологических станциях:

Погода в Тавде (Свердловская область, Россия) (68 км)
Погода в Туринске (Свердловская область, Россия) (72 км)
Погода в Куминской (Ханты-Мансийский АО, Россия) (94 км)
Погода в Ирбите (Свердловская область, Россия) (135 км)
Погода в Леушах (Ханты-Мансийский АО, Россия) (141 км)
Погода в Гари (Свердловская область, Россия) (160 км)
Погода в Тугулыме (Свердловская область, Россия) (163 км)
Погода в Тюмени (Тюменская область, Россия) (166 км)
Погода в Алапаевске (Свердловская область, Россия) (180 км)
Погода в Ярково (Тюменская область, Россия) (196 км)

Пояснения к столбцам:

Ветер - указаны скорость ветра в м/с - средняя за 10 мин, порывы в срок и между сроками (в фигурных скобках) и направление, откуда дует ветер: С - северный, СВ - северо-восточный, В - восточный, ЮВ - юго-восточный, Ю - южный, ЮЗ - юго-западный, З - западный, СЗ - северо-западный.
Видимость - горизонтальная дальность видимости в метрах или километрах. При видимости от 1 до 10 км при отсутствии осадков обычно наблюдается дымка, при ухудшении видимости до 1 км и менее - туман. В сухую погоду видимость может ухудшаться дымом, пылью или мглою.
Явления - указаны атмосферные явления, наблюдавшиеся в срок или в последний час перед сроком; фигурными скобками обозначены явления, наблюдавшиеся между сроками (за 1-3 часа до срока); квадратными скобками обозначены град или гололедные отложения с указанием их диаметра в мм.
Облачность - указаны через наклонную черту общая и нижняя облачность в баллах и высота нижней границы облаков в метрах; квадратными скобками обозначены формы облаков: Ci - перистые, Cs - перисто-слоистые, Cc - перисто-кучевые, Ac - высококучевые, As - высокослоистые, Sc - слоисто-кучевые, Ns - слоисто-дождевые, Cu - кучевые, Cb - кучево-дождевые. Подробнее классификацию облаков см. в Атласе облаков (PDF).
T - Температура воздуха - температура, измеренная на высоте 2 м над землей.
Td - Температура точки росы - температура, при понижении до которой содержащийся в воздухе водяной пар достигнет насыщения.
f - Относительная влажность воздуха - влажноcть воздуха, измеренная на высоте 2 м над землей.
Te - Эффективная температура - температура, которую ощущает одетый по сезону человек в тени. Характеристика душности погоды. При расчете учитывается влияние влажности воздуха и скорости ветра на теплоощущения человека.
Tes - Эффективная температура на солнце - температура, которую ощущает человек, с поправкой на солнечный нагрев. Характеристика знойности погоды. Зависит от высоты солнца над горизонтом, облачности и скорости ветра. Ночью, в пасмурную погоду, а также при ветре 12 м/с и более поправка равна нулю.
P - Атмосферное давление - приведенное к уровню моря атмосферное давление.
Po - Атмосферное давление - измеренное на уровне метеостанции атмосферное давление.
Tmin - Минимальная температура - минимум температуры воздуха на высоте 2 м над землей.
Tmax - Максимальная температура - максимум температуры воздуха на высоте 2 м над землей.
R - Количество осадков - Количество выпавших осадков за период времени, мм. При наведении курсора мыши на число - период времени, за который выпало указанное количество осадков.
R24 - Количество осадков - Количество выпавших осадков за 24 часа, мм.
S - Снежный покров - Высота снежного покрова, см. При наведении курсора мыши на число - состояние снежного покрова и степень покрытия местности в баллах.